Weather History for K4BM - November, 2013

Change the Weather History Date:

Saturday, November 2, 2013

  Actual Average (KAFF) Record (KAFF)
Temperature  
Mean Temperature 37 °F -  
Max Temperature 50 °F 51 °F 72 °F (2008)
Min Temperature 24 °F 29 °F 3 °F (2004)
Degree Days  
Heating Degree Days 28    
Moisture  
Dew Point -6 °F    
Average Humidity 18    
Maximum Humidity 43    
Minimum Humidity 8    
Precipitation  
Precipitation 0.00 in - - ()
Sea Level Pressure  
Sea Level Pressure 30.30 in    
Wind  
Wind Speed 11 mph (WSW)    
Max Wind Speed 16 mph    
Max Gust Speed 29 mph    
Visibility 10 miles    
Events      
Averages and records for this station are not official NWS values.
T = Trace of Precipitation, MM = Missing Value Source: NWS Daily Summary

Daily Weather History Graph

Daily Weather History Graph

Search for Another Location

Airport or City:

Trip Planner

Search our weather history database for the weather conditions in past years. The results will help you decide how hot, cold, wet, or windy it might be!

Date:

Astronomy

Nov. 02, 2013 Rise Set
Actual Time 7:30 AM MDT 5:59 PM MDT
Civil Twilight 7:03 AM MDT 6:27 PM MDT
Nautical Twilight 6:31 AM MDT 6:59 PM MDT
Astronomical Twilight 6:00 AM MDT 7:30 PM MDT
Moon 6:31 AM MDT (11/2) 5:32 PM MDT (11/2)
Length of Visible Light 11h 24m
Length of Day
10h 28m
Waning Crescent, 1% of the Moon is Illuminated
Nov 2
Waning Crescent
Nov 3
New
Nov 9
First Quarter
Nov 17
Full
Nov 25
Last Quarter

Hourly Weather History & Observations

Time (MDT) Temp. Windchill Dew Point Humidity Pressure Visibility Wind Dir Wind Speed Gust Speed Precip Events Conditions
12:01 AM 24.8 °F 14.0 °F 5.0 °F 43% 30.33 in 10.0 mi WNW 11.5 mph 20.7 mph N/A   Scattered Clouds
12:20 AM 26.6 °F 15.2 °F 1.4 °F 34% 30.35 in 10.0 mi NW 13.8 mph 20.7 mph N/A   Scattered Clouds
12:41 AM 26.6 °F 15.2 °F 1.4 °F 34% 30.36 in 10.0 mi NW 13.8 mph 20.7 mph N/A   Clear
1:01 AM 28.4 °F 18.0 °F -4.0 °F 25% 30.36 in 10.0 mi NNW 12.7 mph 25.3 mph N/A   Clear
1:21 AM 28.4 °F 18.5 °F -4.0 °F 25% 30.36 in 10.0 mi NNW 11.5 mph 24.2 mph N/A   Clear
1:41 AM 26.6 °F 15.7 °F -4.0 °F 26% 30.36 in 10.0 mi NNW 12.7 mph 21.9 mph N/A   Clear
2:01 AM 28.4 °F 18.0 °F -5.8 °F 23% 30.36 in 10.0 mi NW 12.7 mph 18.4 mph N/A   Clear
2:20 AM 28.4 °F 19.1 °F -4.0 °F 25% 30.36 in 10.0 mi NNW 10.4 mph 19.6 mph N/A   Clear
2:41 AM 28.4 °F 19.7 °F -4.0 °F 25% 30.37 in 10.0 mi WNW 9.2 mph - N/A   Clear
3:01 AM 28.4 °F 19.7 °F -4.0 °F 25% 30.37 in 10.0 mi WNW 9.2 mph 17.3 mph N/A   Clear
3:21 AM 28.4 °F 20.4 °F -5.8 °F 23% 30.37 in 10.0 mi WNW 8.1 mph 17.3 mph N/A   Clear
3:40 AM 28.4 °F 20.4 °F -5.8 °F 23% 30.37 in 10.0 mi West 8.1 mph 18.4 mph N/A   Clear
4:01 AM 28.4 °F 20.4 °F -4.0 °F 25% 30.37 in 10.0 mi WNW 8.1 mph 20.7 mph N/A   Clear
4:21 AM 28.4 °F 19.7 °F -7.6 °F 21% 30.37 in 10.0 mi West 9.2 mph 17.3 mph N/A   Clear
4:41 AM 28.4 °F 19.1 °F -7.6 °F 21% 30.37 in 10.0 mi West 10.4 mph 17.3 mph N/A   Clear
5:01 AM 28.4 °F 20.4 °F -5.8 °F 23% 30.37 in 10.0 mi WNW 8.1 mph - N/A   Clear
5:21 AM 28.4 °F 19.7 °F -7.6 °F 21% 30.37 in 10.0 mi West 9.2 mph 17.3 mph N/A   Clear
5:41 AM 30.2 °F 22.6 °F -7.6 °F 19% 30.38 in 10.0 mi WNW 8.1 mph 17.3 mph N/A   Clear
6:01 AM 30.2 °F 22.6 °F -5.8 °F 21% 30.38 in 10.0 mi West 8.1 mph - N/A   Clear
6:21 AM 30.2 °F 20.8 °F -4.0 °F 23% 30.37 in 10.0 mi NW 11.5 mph 17.3 mph N/A   Clear
6:41 AM 30.2 °F 23.4 °F -4.0 °F 23% 30.37 in 10.0 mi West 6.9 mph - N/A   Clear
7:01 AM 30.2 °F 22.6 °F -5.8 °F 21% 30.37 in 10.0 mi West 8.1 mph - N/A   Clear
7:21 AM 30.2 °F 21.9 °F -9.4 °F 18% 30.37 in 10.0 mi WSW 9.2 mph - N/A   Clear
7:41 AM 32.0 °F 24.2 °F -9.4 °F 17% 30.38 in 10.0 mi WSW 9.2 mph - N/A   Clear
8:01 AM 30.2 °F 20.8 °F -5.8 °F 21% 30.38 in 10.0 mi WSW 11.5 mph 17.3 mph N/A   Clear
8:21 AM 32.0 °F 23.6 °F -9.4 °F 17% 30.39 in 10.0 mi WSW 10.4 mph 18.4 mph N/A   Clear
8:40 AM 32.0 °F 24.2 °F -13.0 °F 14% 30.39 in 10.0 mi WSW 9.2 mph - N/A   Clear
9:00 AM 32.0 °F 23.6 °F -13.0 °F 14% 30.40 in 10.0 mi WSW 10.4 mph 17.3 mph N/A   Clear
9:21 AM 33.8 °F 25.8 °F -9.4 °F 15% 30.40 in 10.0 mi WSW 10.4 mph 19.6 mph N/A   Clear
9:41 AM 35.6 °F 27.1 °F -7.6 °F 16% 30.40 in 10.0 mi West 12.7 mph 20.7 mph N/A   Clear
10:01 AM 37.4 °F 32.1 °F -7.6 °F 15% 30.40 in 10.0 mi SW 6.9 mph 20.7 mph N/A   Clear
10:20 AM 37.4 °F 30.8 °F -9.4 °F 13% 30.39 in 10.0 mi SW 9.2 mph - N/A   Clear
10:41 AM 37.4 °F 31.4 °F -9.4 °F 13% 30.38 in 10.0 mi SW 8.1 mph 17.3 mph N/A   Clear
11:01 AM 37.4 °F 31.4 °F -5.8 °F 16% 30.38 in 10.0 mi SW 8.1 mph 16.1 mph N/A   Clear
11:21 AM 39.2 °F 32.0 °F -2.2 °F 17% 30.36 in 10.0 mi SW 11.5 mph 18.4 mph N/A   Clear
11:41 AM 41.0 °F 33.9 °F -5.8 °F 14% 30.36 in 10.0 mi SW 12.7 mph 19.6 mph N/A   Clear
12:01 PM 42.8 °F 36.2 °F -4.0 °F 14% 30.34 in 10.0 mi SW 12.7 mph 20.7 mph N/A   Clear
12:21 PM 44.6 °F 38.1 °F -4.0 °F 13% 30.33 in 10.0 mi SW 13.8 mph 23.0 mph N/A   Clear
12:41 PM 44.6 °F 38.1 °F -2.2 °F 14% 30.33 in 10.0 mi SW 13.8 mph 21.9 mph N/A   Clear
1:01 PM 46.4 °F 41.9 °F -2.2 °F 13% 30.32 in 10.0 mi SSW 9.2 mph 18.4 mph N/A   Clear
1:21 PM 48.2 °F - -7.6 °F 10% 30.31 in 10.0 mi SSW 11.5 mph 23.0 mph N/A   Clear
1:41 PM 50.0 °F - -9.4 °F 8% 30.30 in 10.0 mi SSW 11.5 mph 21.9 mph N/A   Clear
2:00 PM 50.0 °F - -7.6 °F 9% 30.28 in 10.0 mi SSW 10.4 mph 24.2 mph N/A   Clear
2:21 PM 50.0 °F - -9.4 °F 8% 30.28 in 10.0 mi SSW 11.5 mph 24.2 mph N/A   Clear
2:41 PM 50.0 °F - -7.6 °F 9% 30.29 in 10.0 mi SW 9.2 mph - N/A   Clear
3:01 PM 48.2 °F - -7.6 °F 10% 30.28 in 10.0 mi SSW 10.4 mph 20.7 mph N/A   Clear
3:21 PM 48.2 °F - -11.2 °F 8% 30.27 in 10.0 mi SW 11.5 mph 25.3 mph N/A   Clear
3:41 PM 50.0 °F - -9.4 °F 8% 30.26 in 10.0 mi SSW 12.7 mph 17.3 mph N/A   Clear
4:01 PM 48.2 °F - -11.2 °F 8% 30.26 in 10.0 mi SSW 10.4 mph 21.9 mph N/A   Clear
4:21 PM 46.4 °F 40.7 °F -9.4 °F 9% 30.26 in 10.0 mi SSW 12.7 mph 23.0 mph N/A   Clear
4:41 PM 44.6 °F 39.2 °F -11.2 °F 9% 30.26 in 10.0 mi SSW 10.4 mph 24.2 mph N/A   Clear
5:00 PM 42.8 °F 37.5 °F -9.4 °F 11% 30.25 in 10.0 mi SSW 9.2 mph 18.4 mph N/A   Clear
5:21 PM 41.0 °F 36.4 °F -9.4 °F 12% 30.24 in 10.0 mi SSW 6.9 mph 18.4 mph N/A   Clear
5:41 PM 41.0 °F 34.7 °F -9.4 °F 12% 30.24 in 10.0 mi SSW 10.4 mph 16.1 mph N/A   Clear
6:01 PM 37.4 °F 30.3 °F -9.4 °F 13% 30.23 in 10.0 mi SSW 10.4 mph 20.7 mph N/A   Clear
6:21 PM 37.4 °F 29.3 °F -7.6 °F 15% 30.23 in 10.0 mi SSW 12.7 mph 21.9 mph N/A   Clear
6:41 PM 35.6 °F 25.9 °F -9.4 °F 14% 30.21 in 10.0 mi SW 16.1 mph 24.2 mph N/A   Clear
7:01 PM 35.6 °F 26.6 °F -9.4 °F 14% 30.22 in 10.0 mi SW 13.8 mph 24.2 mph N/A   Clear
7:21 PM 35.6 °F 25.9 °F -9.4 °F 14% 30.21 in 10.0 mi SW 16.1 mph 25.3 mph N/A   Clear
7:41 PM 35.6 °F 26.6 °F -9.4 °F 14% 30.21 in 10.0 mi SW 13.8 mph 25.3 mph N/A   Clear
8:01 PM 35.6 °F 26.2 °F -9.4 °F 14% 30.21 in 10.0 mi SW 15.0 mph 23.0 mph N/A   Clear
8:21 PM 33.8 °F 24.3 °F -7.6 °F 17% 30.19 in 10.0 mi SW 13.8 mph 21.9 mph N/A   Clear
8:41 PM 33.8 °F 24.3 °F -5.8 °F 18% 30.19 in 10.0 mi SW 13.8 mph 23.0 mph N/A   Clear
9:01 PM 33.8 °F 24.3 °F -5.8 °F 18% 30.19 in 10.0 mi SW 13.8 mph 20.7 mph N/A   Clear
9:21 PM 32.0 °F 22.1 °F -4.0 °F 21% 30.17 in 10.0 mi SW 13.8 mph 20.7 mph N/A   Clear
9:41 PM 33.8 °F 23.9 °F -4.0 °F 20% 30.17 in 10.0 mi SW 15.0 mph 21.9 mph N/A   Clear
10:01 PM 32.0 °F 22.5 °F -0.4 °F 25% 30.16 in 10.0 mi SW 12.7 mph 23.0 mph N/A   Clear
10:21 PM 32.0 °F 21.6 °F -0.4 °F 25% 30.15 in 10.0 mi SW 15.0 mph 20.7 mph N/A   Clear
10:41 PM 32.0 °F 21.6 °F 1.4 °F 27% 30.14 in 10.0 mi SSW 15.0 mph 21.9 mph N/A   Clear
11:01 PM 32.0 °F 21.6 °F 1.4 °F 27% 30.14 in 10.0 mi SW 15.0 mph 21.9 mph N/A   Clear
11:21 PM 32.0 °F 21.2 °F 5.0 °F 32% 30.12 in 10.0 mi SW 16.1 mph 24.2 mph N/A   Clear
11:41 PM 32.0 °F 21.2 °F 5.0 °F 32% 30.12 in 10.0 mi SW 16.1 mph 28.8 mph N/A   Clear